Location: Tauranga
(37.6860°S, 176.1670°E)
Time: 09:18:53
(UTC+13:00)

Cosmos 2333 - Pass Details

Date: 24 January 2019
Orbit: 831 x 865 km, 70.9° (Epoch: 22 February)

Event Time Altitude Azimuth Distance (km) Brightness Sun altitude
Exits shadow 22:49:20 46° 54° (NE) 1,159 4.4 -22.0°
Maximum altitude 22:49:58 48° 74° (ENE) 1,131 4.5 -22.1°
Drops below altitude 10° 22:55:32 10° 146° (SE) 2,533 6.9 -22.8°
Sets 22:58:06 0° 151° (SSE) 3,475 7.7 -23.1°
